Regional Weather Roundup
Issued by NWS

Home | Current Version | Previous Version | Graphics & Text | Print | Product List | Glossary On
Versions: 1 2 3 4 5 6 7 8 9 10 11 12 13 14 15 16 17 18 19 20 21 22 23 24 25 26 27 28 29 30 31 32 33 34 35 36 37 38 39 40 41 42 43 44 45 46 47 48 49 50
000
ASUS43 KBIS 030710
RWRND

NORTH DAKOTA REGIONAL WEATHER ROUNDUP
NATIONAL WEATHER SERVICE BISMARCK ND
200 AM CDT WED JUN 03 2015

NOTE: "FAIR" INDICATES FEW OR NO CLOUDS BELOW 12,000 FEET WITH NO
SIGNIFICANT WEATHER AND/OR OBSTRUCTIONS TO VISIBILITY.


NDZ001>003-009>011-017-030800-
NORTHWEST NORTH DAKOTA

CITY           SKY/WX    TMP DP  RH WIND       PRES   REMARKS
WILLISTON      PTCLDY    52  49  89 N6        29.94R
MINOT          LGT RAIN  50  44  80 N20G31    29.89R
MINOT AFB      RAIN      48  48 100 N15G22    29.90R FOG
$$

NDZ018>021-031>035-040>046-030800-
SOUTHWEST NORTH DAKOTA

CITY           SKY/WX    TMP DP  RH WIND       PRES   REMARKS
BISMARCK       CLOUDY    61  56  83 W9        29.81F
DICKINSON      CLOUDY    55  50  83 N9        29.90R
GARRISON         N/A     53  49  86 N12G22    29.85R
HETTINGER ARPT CLOUDY    55  51  86 NW13      29.91F
$$

NDZ004>008-012>016-024-026-027-054-030800-
NORTHEAST NORTH DAKOTA

CITY           SKY/WX    TMP DP  RH WIND       PRES   REMARKS
GRAND FORKS    CLOUDY    62  60  93 N9        29.73S
GRND FRKS AFB  MOCLDY    61  59  94 N13       29.74S
DEVILS LAKE    CLOUDY    55  48  76 NE12G22   29.80R
$$

NDZ022-023-025-028>030-036>039-047>053-030800-
SOUTHEAST NORTH DAKOTA

CITY           SKY/WX    TMP DP  RH WIND       PRES   REMARKS
FARGO          PTCLDY    70  62  76 S9        29.66F
JAMESTOWN      CLOUDY    61  59  93 N13       29.75S FOG
$$




USA.gov is the U.S. government's official web portal to all federal, state and local government web resources and services.